Location: Unspecified
(38.3863°N, 0.0000°E)
Time: 05:07:04
(UTC+00:00)

Cosmos 1181 Rocket - Visible Passes

Search period start: 04 April 2026 00:00
Search period end: 14 April 2026 00:00
Orbit: 962 x 990 km, 82.9° (Epoch: 29 March)

Date Brightness Start Highest point End Pass type
(mag) Time Alt. Az. Time Alt. Az. Time Alt. Az.
4 Apr 5.7 01:58:20 38° ENE 01:58:20 38° ENE 02:02:51 10° NNE visible
4 Apr 5.6 03:43:02 26° WNW 03:43:02 26° WNW 03:47:42 10° NNW visible
5 Apr 5.1 02:23:52 54° NNE 02:23:52 54° NNE 02:28:40 10° N visible
5 Apr 6.2 04:08:33 14° WNW 04:08:33 14° WNW 04:11:46 10° NW visible
6 Apr 6.7 01:04:43 18° ENE 01:04:43 18° ENE 01:07:27 10° NE visible
6 Apr 5.1 02:49:23 46° NW 02:49:23 46° NW 02:54:08 10° N visible
7 Apr 6.0 01:30:12 30° NE 01:30:12 30° NE 01:34:00 10° NNE visible
7 Apr 5.6 03:14:53 29° NW 03:14:53 29° NW 03:19:11 10° NNW visible
8 Apr 5.5 01:55:40 44° NNE 01:55:40 44° NNE 01:59:55 10° NNE visible
8 Apr 6.2 03:40:21 17° WNW 03:40:21 17° WNW 03:43:35 10° NNW visible
9 Apr 6.8 00:36:28 15° ENE 00:36:28 15° ENE 00:38:19 10° NE visible
9 Apr 5.3 02:21:08 44° NNW 02:21:08 44° NNW 02:25:28 10° N visible
10 Apr 6.3 01:01:54 25° NE 01:01:54 25° NE 01:05:06 10° NNE visible
10 Apr 5.6 02:46:35 31° NW 02:46:35 31° NW 02:50:38 10° N visible
11 Apr 5.8 01:27:20 37° NNE 01:27:20 37° NNE 01:31:09 10° NNE visible
11 Apr 6.1 03:12:00 19° NW 03:12:00 19° NW 03:15:15 10° NNW visible
12 Apr 7.0 00:08:05 12° ENE 00:08:05 12° ENE 00:09:02 10° NE visible
12 Apr 5.5 01:52:45 42° N 01:52:45 42° N 01:56:47 10° N visible
13 Apr 6.5 00:33:30 21° NE 00:33:30 21° NE 00:36:10 10° NNE visible
13 Apr 5.7 02:18:10 32° NW 02:18:10 32° NW 02:22:03 10° N visible
